Wind_Speed
20 21 21 21 20 20 19 20 22 22 22 22 22 23 21 24 24 25 16 22 14 8 8 5 4 5 3 2 4 4 3 4 4 5 4 0 4 3 2 6 1 5 8 3 31
21 21 23 23 22 21 21 20 20 21 22 22 21 24 26 22 22 21 38 37 30 25 12 9 4 5 1 3 3 4 4 9 6 3 1 3 3 7 5 4 1 1 3 19 31
21 22 23 23 22 22 22 22 21 21 22 22 22 22 26 23 7 13 15 14 20 25 24 13 7 6 4 3 5 5 6 5 4 5 2 3 2 3 7 4 7 11 7 15 23
21 20 22 22 23 22 23 22 23 23 22 21 21 20 22 16 10 5 6 16 12 18 17 8 5 5 5 7 5 3 7 4 4 2 5 3 3 2 3 6 6 9 14 15 17
20 20 23 23 23 22 23 23 24 24 22 20 18 18 13 10 13 22 7 12 14 2 15 6 6 6 6 4 4 5 4 5 7 8 6 3 7 5 6 4 4 9 10 17 17
19 20 20 22 23 24 25 25 24 24 22 20 20 16 11 20 20 39 37 33 18 11 13 8 7 8 5 6 8 4 7 9 5 6 4 4 6 4 6 7 3 7 12 14 17
18 20 19 22 23 25 25 28 29 27 24 22 20 16 14 27 14 14 16 20 5 6 11 19 15 5 7 4 7 6 6 7 5 5 7 7 9 8 8 6 8 9 9 9 14
19 19 20 22 23 26 27 29 32 34 29 23 19 16 15 16 21 40 31 27 26 23 19 19 17 7 3 1 2 3 4 10 4 8 6 11 14 10 11 6 11 10 9 10 13
18 20 20 22 24 26 29 31 35 36 32 21 17 11 14 12 28 41 32 24 22 17 13 14 7 7 3 5 3 3 4 5 6 10 5 9 7 8 10 9 11 10 10 10 12
20 20 19 20 23 26 29 33 27 20 6 3 12 6 10 14 14 20 28 23 7 5 6 8 6 5 4 9 17 7 6 5 7 7 7 6 11 8 5 10 13 11 9 10 11
21 20 20 22 24 26 32 15 6 4 5 7 9 13 14 19 15 16 24 22 11 7 13 5 8 16 23 18 11 8 6 11 4 6 6 8 15 17 14 6 8 10 9 10 10
20 19 19 20 22 26 10 6 8 11 12 15 21 25 33 24 10 11 22 11 13 21 18 7 22 23 13 13 12 13 9 9 5 5 4 8 10 14 7 9 13 14 11 12 8
20 19 18 17 22 9 17 13 20 26 8 13 17 16 13 14 18 20 18 19 11 21 18 22 16 14 17 13 16 18 19 12 7 1 3 2 7 8 8 7 8 9 13 8 14
18 18 17 16 11 9 14 13 26 20 6 8 6 7 10 12 11 29 14 14 10 23 25 19 19 19 14 20 18 21 17 10 8 2 6 5 5 7 6 9 7 13 10 14 12
18 16 15 10 11 5 12 22 24 4 6 7 5 3 4 18 7 16 34 21 18 12 19 18 24 21 22 28 19 16 9 10 7 7 1 5 3 7 5 8 11 18 11 15 16
17 16 15 15 10 14 13 19 8 2 9 6 3 10 6 14 19 2 14 15 10 12 19 23 5 20 19 16 19 8 6 4 3 4 8 14 10 6 8 9 13 9 13 11 10
16 16 16 15 10 8 7 8 3 6 6 5 7 11 11 7 13 18 16 25 12 11 8 8 22 12 9 8 8 11 9 4 3 4 13 7 8 17 7 10 17 17 12 11 10
16 16 20 24 23 16 3 2 6 7 13 19 15 18 10 6 6 19 20 16 18 9 8 11 11 18 13 15 15 25 18 7 8 5 10 6 8 6 13 19 11 9 8 6 7
13 18 12 17 4 13 5 5 8 8 7 6 12 9 2 5 9 15 21 25 12 11 8 13 9 9 13 9 17 10 16 18 5 2 1 5 6 8 8 10 8 10 7 9 8
6 6 7 2 9 16 2 7 6 10 13 10 3 6 5 13 8 8 6 11 21 16 16 8 5 12 23 8 12 13 21 10 6 6 6 4 4 7 7 13 8 9 10 9 7
2 1 2 9 15 4 4 6 7 13 15 6 9 9 16 15 3 8 5 18 11 14 16 7 13 6 16 22 18 11 13 6 11 7 8 3 7 8 9 10 10 12 10 10 9
6 1 11 13 2 3 3 5 8 14 10 7 4 8 8 8 5 6 10 12 10 9 11 22 5 10 18 22 30 26 26 23 13 13 14 3 10 4 10 7 7 9 9 8 6
3 3 12 4 4 5 5 6 6 6 6 4 5 8 5 5 6 5 3 4 4 5 7 10 17 11 6 10 20 28 21 20 20 9 9 15 11 5 6 5 8 8 8 8 7
3 2 2 4 3 4 3 5 9 5 9 6 5 6 8 6 10 6 9 7 4 1 6 9 9 24 19 10 22 33 24 21 25 18 21 18 21 6 7 8 8 8 9 10 9
3 4 4 3 4 4 3 2 6 5 6 3 3 4 1 3 8 6 10 13 7 6 3 5 9 11 22 7 19 18 30 30 25 26 22 30 25 17 10 11 12 9 7 9 9
4 3 3 5 6 4 5 4 9 12 8 6 4 10 5 5 9 15 14 7 5 4 5 2 5 20 25 23 12 23 24 26 23 28 21 23 22 10 10 4 4 9 9 8 9
6 4 3 6 5 4 4 6 6 6 5 10 5 7 10 11 11 11 15 16 13 10 7 2 3 7 10 23 19 12 22 25 23 21 31 27 28 9 10 9 10 9 10 11 9
Wind_Direction
343 339 335 334 329 328 320 315 316 304 311 317 318 318 308 318 294 296 264 254 263 297 220 239 214 202 206 248 173 134 104 203 233 182 263 181 141 180 113 119 132 172 150 221 155
332 334 336 332 329 331 327 320 313 311 303 309 312 311 314 319 295 274 270 278 259 248 224 223 239 162 235 223 210 149 163 210 211 176 259 276 198 173 132 136 345 174 65 141 148
333 332 330 333 329 329 325 322 320 315 310 302 309 312 307 310 295 266 288 286 253 226 227 243 219 161 204 189 214 193 203 219 239 191 142 306 293 267 132 191 194 190 160 154 156
331 329 331 328 329 327 327 322 318 314 308 308 302 311 310 301 244 194 116 45 46 202 219 191 164 169 196 213 214 206 222 214 268 328 357 313 293 235 194 226 196 191 163 158 171
329 330 326 328 328 325 325 324 320 313 305 297 299 305 324 256 229 227 232 303 324 253 209 199 165 160 194 207 186 234 239 197 255 291 273 313 255 229 217 215 36 130 150 174 182
327 329 328 326 328 327 323 323 318 310 304 293 295 302 282 255 256 248 263 281 291 260 228 207 211 193 200 220 176 237 205 246 266 258 267 241 265 169 257 165 125 161 182 189 188
324 322 330 326 327 325 322 317 313 307 297 289 289 289 261 241 237 247 265 264 209 289 248 224 230 184 182 287 219 229 256 278 243 227 222 182 271 223 235 150 165 200 214 209 214
319 322 325 325 326 324 318 311 308 302 295 289 279 276 260 253 253 258 252 266 258 281 270 263 225 217 209 252 346 173 158 244 224 183 235 164 251 240 239 220 238 213 213 217 224
315 319 319 323 322 321 319 313 305 299 292 276 272 240 265 269 224 238 247 240 265 277 262 246 183 183 204 192 305 255 206 197 271 198 170 182 249 232 221 202 237 240 219 220 229
312 315 318 323 323 323 322 316 313 310 334 201 222 251 250 246 230 221 223 224 210 299 289 201 185 175 169 192 217 198 182 229 206 214 200 196 257 256 254 200 227 243 248 226 223
308 313 317 320 321 323 326 334 0 330 6 284 256 244 298 3 246 223 206 214 222 223 231 214 189 208 211 215 231 192 195 216 196 222 165 223 238 250 235 219 237 241 244 238 232
306 308 312 317 319 324 333 334 296 310 292 262 259 258 256 263 292 282 187 169 179 213 217 224 220 213 208 196 208 226 225 232 270 198 167 257 249 251 232 222 220 227 238 238 243
303 305 309 317 316 316 336 302 335 340 281 277 239 245 241 215 241 257 193 195 194 210 202 209 227 196 190 196 201 221 223 217 224 107 210 330 281 265 255 214 232 242 242 234 229
299 303 311 319 313 316 318 332 324 337 288 271 235 260 207 207 240 225 220 187 208 202 202 221 222 204 192 206 195 223 215 221 226 185 250 159 274 264 252 252 231 248 232 238 235
292 295 302 306 292 293 307 322 329 348 287 263 233 265 246 182 149 222 212 205 205 186 183 212 204 203 199 205 191 232 173 200 202 227 151 230 248 264 221 237 251 247 240 238 240
287 291 298 298 275 280 302 322 324 229 248 292 314 22 1 218 227 222 184 223 211 207 196 218 176 200 209 211 201 139 108 109 84 129 243 240 210 216 210 208 243 247 244 244 235
284 288 289 280 264 267 293 348 29 230 314 261 354 337 340 296 240 236 213 198 191 180 190 233 228 210 169 176 172 182 146 198 224 199 238 202 215 242 250 228 231 241 245 245 245
283 289 285 280 279 254 211 129 226 257 241 287 327 315 306 307 280 223 235 207 191 174 164 187 216 205 189 201 189 194 191 164 198 201 236 165 232 245 206 222 230 243 248 281 232
290 295 288 296 277 185 150 203 214 230 263 320 335 307 341 81 352 359 232 242 180 208 162 187 228 178 208 196 170 189 201 191 123 348 121 215 284 297 251 252 242 239 219 226 212
274 288 265 307 154 152 168 241 235 233 280 311 248 277 280 325 338 30 315 318 246 206 203 195 241 210 208 194 214 172 192 186 208 188 230 260 246 225 234 221 218 226 216 219 199
188 342 254 182 144 186 214 226 262 246 263 270 261 287 294 300 281 308 269 300 8 266 232 220 212 215 200 205 195 187 194 183 193 190 213 252 251 212 208 213 202 217 215 205 194
147 263 155 136 86 236 214 215 234 262 276 258 271 248 260 266 258 241 209 207 346 356 308 238 263 236 219 211 199 200 210 196 200 205 224 164 238 204 220 232 199 219 205 196 201
177 214 194 191 230 222 273 260 234 254 243 261 262 224 215 268 302 236 298 155 85 44 10 348 228 230 224 224 208 214 206 202 210 225 208 217 241 188 173 209 230 219 202 199 189
149 225 258 209 203 195 251 260 248 282 252 248 266 280 271 262 253 260 251 252 273 289 303 325 247 219 225 212 194 206 211 207 204 211 221 218 233 212 194 219 235 225 199 188 192
168 216 187 221 236 209 165 245 276 276 237 240 269 218 357 287 308 290 301 287 267 205 188 213 278 256 229 206 202 220 210 208 216 216 211 224 228 214 212 212 219 214 166 162 188
165 179 202 245 248 229 242 214 249 269 264 265 259 302 305 281 277 296 301 322 307 167 182 199 305 317 221 227 233 200 220 215 218 223 224 237 245 183 220 148 152 181 167 181 196
174 214 149 194 181 174 213 214 236 264 264 250 274 321 296 281 279 283 279 266 249 249 269 160 342 355 239 206 220 222 216 212 220 230 218 221 228 169 194 202 206 196 187 198 204
Height
825 822 819 818 815 810 807 804 802 799 796 794 792 790 786 785 781 778 771 761 763 762 761 763 762 763 764 764 763 766 786 793 778 775 763 751 752 746 747 754 754 755 757 756 760
825 821 818 814 812 808 804 801 799 796 794 792 790 788 786 782 778 770 756 755 755 760 760 760 762 762 767 765 764 770 787 779 763 757 759 755 751 750 752 756 756 754 754 756 760
823 820 817 814 811 806 803 799 796 794 791 789 788 786 784 781 777 755 751 748 743 752 756 757 759 760 766 764 764 767 775 764 755 752 752 753 750 748 754 759 752 753 754 757 761
822 819 815 812 808 805 801 797 794 791 788 786 785 784 781 782 771 748 747 746 742 748 756 754 757 762 767 767 759 766 760 755 750 747 750 754 750 749 749 746 738 742 746 754 759
819 816 814 811 807 803 798 794 791 788 785 783 782 782 779 773 752 744 745 746 749 752 752 754 756 759 764 761 760 762 757 754 750 750 750 750 753 750 748 743 742 744 749 752 755
817 813 810 807 803 799 795 790 788 785 781 780 778 778 779 764 750 744 744 745 747 750 748 752 750 749 755 756 759 750 753 751 750 751 751 752 750 750 742 743 745 748 749 750 751
814 811 807 803 799 795 792 788 784 780 777 775 775 774 769 740 741 740 742 741 743 746 747 745 747 748 748 752 746 748 757 754 752 750 754 751 758 753 741 741 746 749 750 749 748
811 808 805 801 798 793 788 784 778 773 771 771 770 770 753 737 740 734 734 735 739 742 744 744 742 746 747 743 746 752 758 764 747 749 746 749 755 745 739 743 743 747 748 748 746
808 805 803 798 795 790 785 778 771 764 761 763 765 765 745 727 723 722 730 732 735 738 740 740 740 742 745 755 763 760 769 765 754 746 744 752 752 740 735 741 742 741 743 743 742
805 802 798 794 791 787 782 774 762 756 755 754 758 762 734 717 716 715 721 729 732 735 737 736 740 745 749 753 752 762 760 757 758 744 747 752 750 741 733 740 737 736 737 738 738
802 800 797 793 788 785 779 772 768 761 756 752 748 736 717 715 715 709 714 723 730 735 740 734 743 737 729 735 739 743 749 750 747 738 745 750 743 731 732 736 737 736 734 732 729
799 796 794 791 786 783 780 780 778 774 752 747 737 727 721 723 722 707 710 718 722 726 727 737 725 717 723 728 737 740 745 747 743 739 742 744 745 731 730 729 724 724 726 724 722
795 793 790 788 784 781 780 779 777 773 761 730 723 712 706 715 713 703 701 702 709 714 716 722 701 713 719 726 734 732 737 742 742 736 740 739 743 732 720 721 718 717 712 714 714
791 789 788 786 783 781 780 777 776 773 763 727 714 698 694 696 696 697 691 694 700 704 707 707 707 708 715 718 721 730 719 730 738 745 759 740 760 732 722 718 713 708 708 706 705
786 784 783 781 780 780 781 777 774 773 769 710 699 690 686 690 681 679 683 686 688 688 698 697 696 705 709 698 709 711 717 727 734 741 746 745 757 731 717 719 710 697 700 698 694
782 781 781 779 777 776 776 776 774 776 777 713 693 698 697 686 681 676 679 683 678 686 686 685 688 693 692 697 701 711 722 730 741 753 757 732 742 725 716 707 695 693 689 689 689
775 775 776 776 773 774 775 777 800 778 732 712 706 698 702 703 684 678 675 678 678 689 697 693 688 685 688 702 704 709 726 745 753 759 734 727 741 703 701 691 680 679 680 682 681
771 770 769 768 767 769 775 783 794 748 734 710 709 702 699 697 683 676 674 665 664 671 686 694 699 684 677 682 692 699 706 729 747 753 725 732 727 702 685 673 672 675 676 677 679
766 765 762 760 760 764 772 781 782 744 731 723 718 712 697 707 715 699 670 660 667 667 676 685 689 672 674 674 677 696 702 692 724 730 737 721 710 691 682 683 679 677 676 674 675
762 760 757 757 758 763 771 771 753 736 730 728 736 718 720 705 717 719 718 674 662 665 663 675 689 665 662 673 670 673 678 708 709 732 734 717 714 694 681 672 675 675 673 671 673
759 761 752 753 758 762 766 765 744 733 734 734 729 728 718 717 711 713 717 699 695 669 666 662 664 664 662 662 667 675 677 683 691 711 706 715 697 679 667 666 671 667 666 667 671
757 766 753 753 767 755 752 741 730 727 723 728 725 722 719 714 716 704 704 704 697 703 692 659 662 668 658 645 649 654 662 668 683 702 687 704 675 654 659 656 660 662 662 663 666
752 752 751 753 755 757 750 736 731 727 722 721 717 710 706 706 713 697 693 695 706 707 705 698 655 663 661 651 648 651 651 653 661 672 695 689 667 655 658 659 660 659 663 664 667
751 754 749 746 744 745 742 735 726 721 720 717 715 712 710 708 699 700 688 683 684 697 705 707 681 640 638 640 639 649 643 647 651 660 659 667 656 657 656 659 657 660 659 662 666
743 743 740 746 742 736 739 738 728 724 714 714 713 712 715 714 702 694 689 682 680 685 702 700 686 648 637 632 632 633 634 640 645 642 655 637 647 648 652 651 650 651 657 662 666
733 738 736 732 733 734 733 729 723 716 715 713 713 710 711 715 709 707 700 696 691 690 684 692 675 672 634 634 630 630 631 635 635 632 643 638 637 637 643 648 648 651 655 659 662
723 727 729 728 733 736 729 722 717 713 710 708 709 713 712 706 699 698 693 690 687 688 690 684 682 684 626 625 630 634 625 625 630 624 622 629 611 638 641 645 645 648 651 652 655